Tracking 27122 objects as of 24-Mar-2023
HD Live streaming from Space Station
objects crossing your sky now

STARLINK-3620

Track STARLINK-3620 now!
10-day predictions
STARLINK-3620 is classified as:


NORAD ID: 51775
Int'l Code: 2022-017H
Perigee: 546.0 km
Apogee: 547.5 km
Inclination: 53.2 °
Period: 95.4 minutes
Semi major axis: 6917 km
RCS: Unknown
Launch date: February 25, 2022
Source: United States (US)
Launch site: AIR FORCE WESTERN TEST RANGE (AFWTR)
Your satellite tracking list
Your tracking list is empty




NASA's NSSDC Master Catalog

Two Line Element Set (TLE):
1 51775U 22017H   23082.90574489  .00015294  00000-0  97613-3 0  9998
2 51775  53.2144 155.4412 0001090 120.9092 239.2007 15.08870163 60740
Source of the keplerian elements: AFSPC